Location: Joffre
(52.3362°N, 113.5373°W)
Time: 10:57:54
(UTC+00:00)

N. Korean satellite - Pass Details

Date: 08 December 2021
Orbit: 447 x 491 km, 97.3° (Epoch: 21 January)

Event Time Altitude Azimuth Distance (km) Brightness Sun altitude
Rises 12:17:52 0° 22° (NNE) 2,467 10.4 -28.2°
Reaches altitude 10° 12:20:07 10° 35° (NE) 1,587 9.5 -27.8°
Maximum altitude 12:23:04 27° 95° (E) 901 8.5 -27.4°
Drops below altitude 10° 12:25:59 10° 155° (SSE) 1,575 9.4 -26.9°
Sets 12:28:12 0° 168° (SSE) 2,443 10.3 -26.6°
